TimeEDT,TemperatureF,Dew PointF,Humidity,Sea Level PressureIn,VisibilityMPH,Wind Direction,Wind SpeedMPH,Gust SpeedMPH,PrecipitationIn,Events,Conditions,WindDirDegrees,DateUTC
12:52 AM,66.9,64.0,90,29.95,9.0,Calm,Calm,-,N/A,,Scattered Clouds,0,2013-07-01 04:52:00
1:52 AM,66.0,63.0,90,29.95,6.0,Calm,Calm,-,N/A,,Partly Cloudy,0,2013-07-01 05:52:00
2:47 AM,64.4,62.6,94,29.96,1.8,Calm,Calm,-,N/A,,Scattered Clouds,0,2013-07-01 06:47:00
2:52 AM,64.9,62.1,90,29.95,2.0,Calm,Calm,-,N/A,,Scattered Clouds,0,2013-07-01 06:52:00
3:08 AM,64.4,60.8,88,29.97,2.5,South,3.5,-,N/A,,Mostly Cloudy,190,2013-07-01 07:08:00
3:17 AM,64.4,62.6,94,29.97,5.0,Calm,Calm,-,N/A,,Mostly Cloudy,0,2013-07-01 07:17:00
3:52 AM,64.9,62.1,90,29.96,5.0,Calm,Calm,-,N/A,,Overcast,0,2013-07-01 07:52:00
4:52 AM,64.9,62.1,90,29.98,6.0,Calm,Calm,-,N/A,,Overcast,0,2013-07-01 08:52:00
5:15 AM,66.2,62.6,88,29.99,6.0,Calm,Calm,-,N/A,,Overcast,0,2013-07-01 09:15:00
5:52 AM,66.0,63.0,90,29.99,4.0,Calm,Calm,-,N/A,,Overcast,0,2013-07-01 09:52:00
6:38 AM,66.2,64.4,94,30.01,7.0,Calm,Calm,-,N/A,,Overcast,0,2013-07-01 10:38:00
6:52 AM,68.0,64.0,87,30.00,6.0,Calm,Calm,-,N/A,,Mostly Cloudy,0,2013-07-01 10:52:00
7:52 AM,69.1,64.9,87,30.02,9.0,Calm,Calm,-,N/A,,Overcast,0,2013-07-01 11:52:00
8:06 AM,69.8,64.4,83,30.03,9.0,Calm,Calm,-,N/A,,Overcast,0,2013-07-01 12:06:00
8:34 AM,69.8,64.4,83,30.03,10.0,Calm,Calm,-,N/A,,Overcast,0,2013-07-01 12:34:00
8:48 AM,71.6,64.4,78,30.03,10.0,Calm,Calm,-,N/A,,Overcast,0,2013-07-01 12:48:00
8:52 AM,71.1,64.9,81,30.03,10.0,Calm,Calm,-,N/A,,Overcast,0,2013-07-01 12:52:00
9:14 AM,71.6,64.4,78,30.04,10.0,Calm,Calm,-,N/A,,Mostly Cloudy,0,2013-07-01 13:14:00
9:21 AM,71.6,66.2,83,30.04,10.0,Calm,Calm,-,N/A,,Mostly Cloudy,0,2013-07-01 13:21:00
9:52 AM,72.0,66.0,81,30.03,10.0,Calm,Calm,-,N/A,,Mostly Cloudy,0,2013-07-01 13:52:00
10:03 AM,71.6,64.4,78,30.04,10.0,Calm,Calm,-,N/A,,Mostly Cloudy,0,2013-07-01 14:03:00
10:13 AM,73.4,66.2,78,30.04,10.0,Calm,Calm,-,N/A,,Mostly Cloudy,0,2013-07-01 14:13:00
10:24 AM,73.4,64.4,73,30.05,10.0,Calm,Calm,-,N/A,,Mostly Cloudy,0,2013-07-01 14:24:00
10:41 AM,73.4,66.2,78,30.05,10.0,NW,3.5,-,N/A,,Overcast,320,2013-07-01 14:41:00
10:52 AM,72.0,64.9,78,30.05,10.0,WNW,3.5,-,N/A,,Overcast,290,2013-07-01 14:52:00
11:27 AM,73.4,66.2,78,30.06,10.0,NNE,3.5,-,0.00,Rain,Light Rain,20,2013-07-01 15:27:00
11:48 AM,73.4,64.4,73,30.07,10.0,Calm,Calm,-,0.00,Rain,Light Rain,0,2013-07-01 15:48:00
11:52 AM,73.9,64.9,73,30.06,10.0,Variable,4.6,-,0.00,Rain,Light Rain,0,2013-07-01 15:52:00
12:52 PM,75.0,66.0,73,30.06,10.0,NNE,3.5,-,0.00,Rain,Light Rain,20,2013-07-01 16:52:00
1:52 PM,75.9,64.9,69,30.04,10.0,NNE,4.6,-,0.00,,Overcast,20,2013-07-01 17:52:00
2:52 PM,75.9,64.9,69,30.05,10.0,NNW,5.8,-,N/A,,Mostly Cloudy,330,2013-07-01 18:52:00
3:52 PM,77.0,64.0,64,30.04,10.0,North,4.6,-,N/A,,Mostly Cloudy,350,2013-07-01 19:52:00
4:26 PM,75.2,64.4,69,30.05,10.0,NNE,4.6,-,N/A,,Overcast,20,2013-07-01 20:26:00
4:35 PM,75.2,64.4,69,30.05,10.0,North,4.6,-,N/A,,Overcast,360,2013-07-01 20:35:00
4:52 PM,73.0,66.0,79,30.05,8.0,SE,3.5,-,0.00,Rain,Light Rain,130,2013-07-01 20:52:00
5:07 PM,71.6,66.2,83,30.06,2.0,ESE,3.5,-,0.05,Rain,Rain,110,2013-07-01 21:07:00
5:19 PM,71.6,66.2,83,30.06,4.0,ESE,3.5,-,0.06,Rain,Light Rain,110,2013-07-01 21:19:00
5:52 PM,71.1,66.9,87,30.06,8.0,ENE,4.6,-,0.07,Rain,Light Rain,70,2013-07-01 21:52:00
6:09 PM,71.6,66.2,83,30.06,10.0,East,3.5,-,0.00,,Overcast,80,2013-07-01 22:09:00
6:52 PM,71.1,66.0,84,30.06,4.0,East,4.6,-,0.03,Rain,Light Rain,80,2013-07-01 22:52:00
7:10 PM,69.8,66.2,88,30.07,8.0,NE,5.8,-,0.00,Rain,Light Rain,40,2013-07-01 23:10:00
7:52 PM,70.0,66.0,87,30.06,10.0,NNE,3.5,-,0.00,,Overcast,30,2013-07-01 23:52:00
8:52 PM,69.1,64.9,87,30.08,4.0,Calm,Calm,-,0.04,Rain,Light Rain,0,2013-07-02 00:52:00
9:01 PM,69.8,66.2,88,30.09,6.0,Calm,Calm,-,0.00,Rain,Light Rain,0,2013-07-02 01:01:00
9:52 PM,66.9,64.0,90,30.09,9.0,North,3.5,-,0.05,Rain,Light Rain,10,2013-07-02 01:52:00
10:31 PM,66.2,64.4,94,30.11,2.0,Calm,Calm,-,0.12,Rain,Heavy Rain,0,2013-07-02 02:31:00
10:38 PM,66.2,64.4,94,30.10,2.0,Calm,Calm,-,0.16,Rain,Rain,0,2013-07-02 02:38:00
10:52 PM,66.9,64.0,90,30.08,3.0,ENE,3.5,-,0.18,Rain,Light Rain,60,2013-07-02 02:52:00
11:45 PM,68.0,64.4,88,30.09,5.0,Variable,3.5,-,0.08,Rain,Light Rain,0,2013-07-02 03:45:00
11:52 PM,68.0,64.0,87,30.08,10.0,North,3.5,-,0.08,Rain,Light Rain,350,2013-07-02 03:52:00